La Junta, CO

5:54 PM MDT on October 21, 2017 (GMT -0600)
La Junta Municipal

Weather History for KLHX - September, 2013

Change the Weather History Date:

Tuesday, September 10, 2013

  Actual Average Record
Temperature  
Mean Temperature 74 °F 70 °F  
Max Temperature 86 °F 85 °F 101 °F (1974)
Min Temperature 62 °F 55 °F 33 °F (1962)
Degree Days  
Heating Degree Days 0 1  
Month to date heating degree days 0 6  
Since 1 July heating degree days 0 10  
Cooling Degree Days 9 6  
Month to date cooling degree days 156 72  
Year to date cooling degree days 1557 1150  
Growing Degree Days 24 (Base 50)    
Moisture  
Dew Point 55 °F    
Average Humidity 55    
Maximum Humidity 78    
Minimum Humidity 31    
Precipitation  
Precipitation 0.00 in 0.03 in 0.40 in (1957)
Month to date precipitation T 0.32  
Year to date precipitation 4.01  
Sea Level Pressure  
Sea Level Pressure 29.90 in    
Wind  
Wind Speed 8 mph (East)    
Max Wind Speed 25 mph    
Max Gust Speed 30 mph    
Visibility 10 miles    
Events      
T = Trace of Precipitation, MM = Missing Value Source: NWS Daily Summary

Daily Weather History Graph

Daily Weather History Graph

Search for Another Location

Airport or City:

Trip Planner

Search our weather history database for the weather conditions in past years. The results will help you decide how hot, cold, wet, or windy it might be!

Date:

Astronomy

Sep. 10, 2013 Rise Set
Actual Time 6:31 AM MDT 7:09 PM MDT
Civil Twilight 6:05 AM MDT 7:35 PM MDT
Nautical Twilight 5:33 AM MDT 8:07 PM MDT
Astronomical Twilight 5:01 AM MDT 8:39 PM MDT
Moon 11:54 AM MDT (9/10) 10:20 PM MDT (9/10)
Length of Visible Light 13h 30m
Length of Day
12h 37m
Waxing Crescent, 29% of the Moon is Illuminated
Sep 10
Waxing Crescent
Sep 12
First Quarter
Sep 19
Full
Sep 26
Last Quarter
Oct 4
New

Hourly Weather History & Observations

Time (MDT) Temp. Heat Index Dew Point Humidity Pressure Visibility Wind Dir Wind Speed Gust Speed Precip Events Conditions
12:53 AM 66.9 °F - 54.0 °F 63% 29.79 in 10.0 mi NNE 13.8 mph 19.6 mph N/A   Clear
1:53 AM 66.0 °F - 55.0 °F 68% 29.79 in 10.0 mi NNE 17.3 mph - N/A   Clear
2:53 AM 64.9 °F - 55.9 °F 73% 29.81 in 10.0 mi NNE 12.7 mph - N/A   Clear
3:53 AM 64.0 °F - 55.9 °F 75% 29.83 in 10.0 mi North 11.5 mph - N/A   Clear
4:53 AM 63.0 °F - 55.9 °F 78% 29.84 in 10.0 mi North 11.5 mph - N/A   Clear
5:53 AM 63.0 °F - 55.0 °F 75% 29.87 in 10.0 mi North 8.1 mph - N/A   Clear
6:53 AM 62.1 °F - 55.0 °F 78% 29.91 in 10.0 mi Calm Calm - N/A   Clear
7:53 AM 64.9 °F - 55.9 °F 73% 29.94 in 10.0 mi West 3.5 mph - N/A   Clear
8:53 AM 68.0 °F - 55.9 °F 65% 29.96 in 10.0 mi Calm Calm - N/A   Clear
9:53 AM 71.1 °F - 55.9 °F 59% 29.96 in 10.0 mi West 3.5 mph - N/A   Clear
10:53 AM 73.9 °F - 55.9 °F 53% 29.95 in 10.0 mi Variable 4.6 mph - N/A   Clear
11:53 AM 79.0 °F - 55.0 °F 44% 29.95 in 10.0 mi NNE 8.1 mph - N/A   Clear
12:53 PM 79.0 °F - 54.0 °F 42% 29.94 in 10.0 mi West 4.6 mph - N/A   Clear
1:53 PM 82.0 °F 81.3 °F 54.0 °F 38% 29.91 in 10.0 mi Calm Calm - N/A   Clear
2:53 PM 86.0 °F 84.0 °F 53.1 °F 32% 29.89 in 10.0 mi ESE 10.4 mph 16.1 mph N/A   Scattered Clouds
3:53 PM 82.9 °F - 48.9 °F 31% 29.88 in 10.0 mi SE 19.6 mph - N/A   Partly Cloudy
4:53 PM 82.9 °F - 51.1 °F 33% 29.88 in 10.0 mi SSE 12.7 mph - N/A   Partly Cloudy
5:53 PM 78.1 °F - 53.1 °F 42% 29.91 in 10.0 mi SSE 15.0 mph - N/A   Partly Cloudy
6:53 PM 77.0 °F - 53.1 °F 43% 29.92 in 10.0 mi SSE 8.1 mph - N/A   Mostly Cloudy
7:53 PM 75.0 °F - 55.0 °F 50% 29.94 in 10.0 mi SSE 6.9 mph - N/A   Clear
8:53 PM 75.0 °F - 57.9 °F 55% 29.96 in 10.0 mi SE 11.5 mph - N/A   Scattered Clouds
9:53 PM 75.0 °F - 57.9 °F 55% 29.96 in 10.0 mi SW 5.8 mph - N/A   Overcast
10:53 PM 73.0 °F - 57.9 °F 59% 29.96 in 10.0 mi SE 4.6 mph - N/A   Clear
11:53 PM 71.1 °F - 59.0 °F 66% 29.95 in 10.0 mi ESE 3.5 mph - N/A   Clear